TimeMST,TemperatureF,Dew PointF,Humidity,Sea Level PressureIn,VisibilityMPH,Wind Direction,Wind SpeedMPH,Gust SpeedMPH,PrecipitationIn,Events,Conditions,WindDirDegrees,DateUTC
12:16 AM,9.1,4.8,83,29.88,10.0,SW,3.5,-,N/A,,Clear,220,2012-12-30 07:16:00
12:36 AM,7.3,3.0,82,29.86,10.0,Calm,Calm,-,N/A,,Clear,0,2012-12-30 07:36:00
12:56 AM,7.3,3.4,84,29.86,10.0,SSW,4.6,-,N/A,,Clear,200,2012-12-30 07:56:00
1:16 AM,6.6,3.0,85,29.86,10.0,Calm,Calm,-,N/A,,Clear,0,2012-12-30 08:16:00
1:36 AM,6.4,2.7,84,29.87,10.0,South,3.5,-,N/A,,Clear,190,2012-12-30 08:36:00
1:56 AM,7.3,3.0,82,29.88,10.0,SSW,3.5,-,N/A,,Clear,200,2012-12-30 08:56:00
2:16 AM,7.5,1.9,78,29.88,10.0,South,3.5,-,N/A,,Clear,190,2012-12-30 09:16:00
2:36 AM,6.6,2.3,82,29.88,10.0,Calm,Calm,-,N/A,,Clear,0,2012-12-30 09:36:00
2:56 AM,7.5,2.8,81,29.88,10.0,Calm,Calm,-,N/A,,Clear,0,2012-12-30 09:56:00
3:16 AM,7.5,3.4,83,29.88,10.0,Calm,Calm,-,N/A,,Clear,0,2012-12-30 10:16:00
3:36 AM,6.6,2.1,82,29.88,10.0,Calm,Calm,-,N/A,,Clear,0,2012-12-30 10:36:00
3:56 AM,7.9,3.2,81,29.88,10.0,WSW,3.5,-,N/A,,Clear,250,2012-12-30 10:56:00
4:16 AM,7.5,2.8,81,29.88,10.0,Calm,Calm,-,N/A,,Clear,0,2012-12-30 11:16:00
4:36 AM,6.3,2.1,83,29.88,10.0,ESE,3.5,-,N/A,,Clear,120,2012-12-30 11:36:00
4:56 AM,9.7,3.4,76,29.89,10.0,Calm,Calm,-,N/A,,Clear,0,2012-12-30 11:56:00
5:16 AM,8.2,2.3,77,29.89,10.0,Calm,Calm,-,N/A,,Clear,0,2012-12-30 12:16:00
5:36 AM,8.8,2.5,76,29.89,10.0,South,4.6,-,N/A,,Clear,190,2012-12-30 12:36:00
5:56 AM,14.7,3.6,61,29.89,10.0,South,5.8,-,N/A,,Clear,190,2012-12-30 12:56:00
6:16 AM,15.1,2.7,58,29.89,10.0,South,4.6,-,N/A,,Clear,170,2012-12-30 13:16:00
6:36 AM,16.5,2.1,53,29.89,10.0,South,3.5,-,N/A,,Clear,180,2012-12-30 13:36:00
6:56 AM,12.2,1.4,62,29.90,10.0,Calm,Calm,-,N/A,,Clear,0,2012-12-30 13:56:00
7:16 AM,9.9,1.4,69,29.89,10.0,Calm,Calm,-,N/A,,Clear,0,2012-12-30 14:16:00
7:36 AM,7.7,0.7,73,29.89,10.0,Calm,Calm,-,N/A,,Clear,0,2012-12-30 14:36:00
7:56 AM,9.5,1.2,69,29.89,10.0,South,4.6,-,N/A,,Clear,170,2012-12-30 14:56:00
8:16 AM,9.9,2.3,71,29.89,10.0,North,4.6,-,N/A,,Clear,360,2012-12-30 15:16:00
8:36 AM,13.5,5.0,69,29.90,10.0,North,3.5,-,N/A,,Clear,350,2012-12-30 15:36:00
8:56 AM,15.8,5.5,64,29.90,10.0,North,4.6,-,N/A,,Clear,360,2012-12-30 15:56:00
9:16 AM,17.6,5.9,60,29.91,10.0,Calm,Calm,-,N/A,,Clear,0,2012-12-30 16:16:00
9:36 AM,19.0,5.5,56,29.92,10.0,West,3.5,-,N/A,,Clear,280,2012-12-30 16:36:00
9:56 AM,22.1,7.5,54,29.92,10.0,Calm,Calm,-,N/A,,Clear,0,2012-12-30 16:56:00
10:16 AM,25.5,7.3,46,29.91,10.0,Calm,Calm,-,N/A,,Clear,0,2012-12-30 17:16:00
10:36 AM,28.6,6.4,39,29.91,10.0,Calm,Calm,-,N/A,,Clear,0,2012-12-30 17:36:00
10:56 AM,30.7,7.2,37,29.91,10.0,Calm,Calm,-,N/A,,Clear,0,2012-12-30 17:56:00
11:16 AM,30.2,9.9,43,29.91,10.0,North,6.9,-,N/A,,Clear,350,2012-12-30 18:16:00
11:36 AM,28.6,10.2,46,29.90,10.0,North,4.6,-,N/A,,Clear,350,2012-12-30 18:36:00
11:56 AM,28.6,10.4,47,29.90,10.0,North,5.8,-,N/A,,Clear,10,2012-12-30 18:56:00
12:16 PM,29.1,10.0,45,29.89,10.0,NW,4.6,-,N/A,,Clear,320,2012-12-30 19:16:00
12:36 PM,29.5,9.9,44,29.88,10.0,North,4.6,-,N/A,,Clear,10,2012-12-30 19:36:00
12:56 PM,29.5,13.3,51,29.88,10.0,NNE,6.9,-,N/A,,Clear,30,2012-12-30 19:56:00
1:16 PM,28.4,13.1,53,29.88,10.0,NNE,8.1,-,N/A,,Clear,20,2012-12-30 20:16:00
1:36 PM,29.8,11.8,47,29.88,10.0,NNE,8.1,-,N/A,,Clear,20,2012-12-30 20:36:00
1:56 PM,30.7,9.9,42,29.89,10.0,NNE,9.2,-,N/A,,Clear,30,2012-12-30 20:56:00
2:16 PM,30.9,12.9,47,29.90,10.0,North,10.4,-,N/A,,Clear,350,2012-12-30 21:16:00
2:36 PM,30.9,11.5,44,29.91,10.0,North,9.2,-,N/A,,Clear,360,2012-12-30 21:36:00
2:56 PM,30.0,11.8,47,29.92,10.0,NNE,9.2,-,N/A,,Clear,20,2012-12-30 21:56:00
3:16 PM,29.5,13.6,52,29.92,10.0,North,8.1,-,N/A,,Clear,360,2012-12-30 22:16:00
3:36 PM,29.8,13.5,51,29.93,10.0,North,8.1,-,N/A,,Mostly Cloudy,350,2012-12-30 22:36:00
3:56 PM,29.1,14.2,54,29.94,10.0,NNW,5.8,-,N/A,,Scattered Clouds,330,2012-12-30 22:56:00
4:16 PM,28.4,14.4,56,29.94,10.0,NNW,9.2,-,N/A,,Clear,330,2012-12-30 23:16:00
4:36 PM,28.4,13.5,54,29.95,10.0,NNW,8.1,-,N/A,,Clear,340,2012-12-30 23:36:00
4:56 PM,29.1,13.8,53,29.96,10.0,North,9.2,-,N/A,,Mostly Cloudy,350,2012-12-30 23:56:00
5:16 PM,29.3,14.5,54,29.96,10.0,North,9.2,-,N/A,,Overcast,360,2012-12-31 00:16:00
5:36 PM,28.8,15.8,58,29.97,10.0,North,9.2,-,N/A,,Overcast,10,2012-12-31 00:36:00
5:56 PM,28.8,15.6,58,29.98,10.0,NNE,5.8,-,N/A,,Overcast,20,2012-12-31 00:56:00
6:16 PM,28.8,14.9,56,29.99,10.0,NNE,3.5,-,N/A,,Overcast,20,2012-12-31 01:16:00
6:36 PM,26.8,15.3,62,29.99,10.0,North,5.8,-,N/A,,Overcast,360,2012-12-31 01:36:00
6:56 PM,25.0,15.1,66,29.99,10.0,North,6.9,-,N/A,,Overcast,360,2012-12-31 01:56:00
7:16 PM,25.5,15.1,65,29.99,10.0,North,4.6,-,N/A,,Overcast,350,2012-12-31 02:16:00
7:36 PM,24.1,14.7,68,30.00,10.0,North,4.6,-,N/A,,Overcast,350,2012-12-31 02:36:00
7:56 PM,23.0,14.2,69,30.00,10.0,Calm,Calm,-,N/A,,Mostly Cloudy,0,2012-12-31 02:56:00
8:16 PM,23.2,14.2,68,30.00,10.0,Calm,Calm,-,N/A,,Scattered Clouds,0,2012-12-31 03:16:00
8:36 PM,22.5,14.4,71,30.00,10.0,Calm,Calm,-,N/A,,Clear,0,2012-12-31 03:36:00
8:56 PM,23.2,13.8,67,30.00,10.0,Calm,Calm,-,N/A,,Scattered Clouds,0,2012-12-31 03:56:00
9:16 PM,20.3,13.6,75,30.00,10.0,Calm,Calm,-,N/A,,Scattered Clouds,0,2012-12-31 04:16:00
9:36 PM,20.3,13.1,74,30.00,10.0,East,4.6,-,N/A,,Clear,80,2012-12-31 04:36:00
9:56 PM,20.5,13.8,75,30.00,10.0,Calm,Calm,-,N/A,,Scattered Clouds,0,2012-12-31 04:56:00
10:16 PM,16.9,12.4,82,30.00,10.0,Calm,Calm,-,N/A,,Clear,0,2012-12-31 05:16:00
10:36 PM,16.9,12.9,84,30.00,10.0,Calm,Calm,-,N/A,,Clear,0,2012-12-31 05:36:00
10:56 PM,16.7,12.9,85,30.00,10.0,Calm,Calm,-,N/A,,Clear,0,2012-12-31 05:56:00
11:16 PM,18.1,13.8,83,30.00,10.0,Calm,Calm,-,N/A,,Mostly Cloudy,0,2012-12-31 06:16:00
11:36 PM,19.0,14.5,83,29.99,10.0,Calm,Calm,-,N/A,,Overcast,0,2012-12-31 06:36:00
11:56 PM,18.5,14.7,85,29.99,10.0,Calm,Calm,-,N/A,,Overcast,0,2012-12-31 06:56:00